North Newton, KS

3:27 PM CST on December 04, 2016 (GMT -0600)
Newton City County

Weather History for KEWK - September, 2013

Change the Weather History Date:

Thursday, September 19, 2013

  Actual Average Record
Temperature  
Mean Temperature 78 °F -  
Max Temperature 91 °F 75 °F 93 °F (2000)
Min Temperature 64 °F 55 °F 42 °F (2003)
Cooling Degree Days 12    
Growing Degree Days 28 (Base 50)    
Moisture  
Dew Point 63 °F    
Average Humidity 63    
Maximum Humidity 88    
Minimum Humidity 41    
Precipitation  
Precipitation 0.21 in - - ()
Sea Level Pressure  
Sea Level Pressure 29.90 in    
Wind  
Wind Speed 15 mph (SSW)    
Max Wind Speed 25 mph    
Max Gust Speed 32 mph    
Visibility 10 miles    
Events Thunderstorm    
Averages and records for this station are not official NWS values.
T = Trace of Precipitation, MM = Missing Value Source: NWS Daily Summary

Daily Weather History Graph

Daily Weather History Graph

Search for Another Location

Airport or City:

Trip Planner

Search our weather history database for the weather conditions in past years. The results will help you decide how hot, cold, wet, or windy it might be!

Date:

Astronomy

Sep. 19, 2013 Rise Set
Actual Time 7:14 AM CDT 7:30 PM CDT
Civil Twilight 6:48 AM CDT 7:56 PM CDT
Nautical Twilight 6:17 AM CDT 8:27 PM CDT
Astronomical Twilight 5:45 AM CDT 8:58 PM CDT
Moon 7:30 PM CDT (9/19) 7:24 AM CDT (9/19)
Length of Visible Light 13h 08m
Length of Day
12h 15m
Full, 100% of the Moon is Illuminated
Sep 19
Full
Sep 26
Last Quarter
Oct 4
New
Oct 11
First Quarter
Oct 18
Full

Hourly Weather History & Observations

Time (CDT) Temp. Heat Index Dew Point Humidity Pressure Visibility Wind Dir Wind Speed Gust Speed Precip Events Conditions
12:15 AM 75.2 °F - 60.8 °F 61% 29.88 in 10.0 mi South 11.5 mph - N/A   Clear
12:35 AM 75.2 °F - 60.8 °F 61% 29.88 in 10.0 mi South 11.5 mph - N/A   Clear
12:55 AM 75.2 °F - 60.8 °F 61% 29.88 in 10.0 mi South 11.5 mph - N/A   Clear
1:15 AM 75.2 °F - 62.6 °F 65% 29.88 in 10.0 mi South 11.5 mph - N/A   Clear
1:35 AM 75.2 °F - 62.6 °F 65% 29.88 in 10.0 mi South 15.0 mph 20.7 mph N/A   Clear
1:55 AM 75.2 °F - 62.6 °F 65% 29.88 in 10.0 mi South 13.8 mph - N/A   Clear
2:15 AM 75.2 °F - 62.6 °F 65% 29.88 in 10.0 mi South 12.7 mph - N/A   Clear
2:35 AM 75.2 °F - 62.6 °F 65% 29.88 in 10.0 mi South 13.8 mph - N/A   Clear
2:55 AM 75.2 °F - 62.6 °F 65% 29.87 in 10.0 mi South 16.1 mph 19.6 mph N/A   Clear
3:15 AM 75.2 °F - 62.6 °F 65% 29.87 in 10.0 mi South 16.1 mph - N/A   Clear
3:35 AM 75.2 °F - 62.6 °F 65% 29.87 in 10.0 mi South 16.1 mph 19.6 mph N/A   Clear
3:55 AM 75.2 °F - 62.6 °F 65% 29.87 in 10.0 mi SSW 17.3 mph 23.0 mph N/A   Clear
4:15 AM 75.2 °F - 62.6 °F 65% 29.87 in 10.0 mi SSW 17.3 mph 23.0 mph N/A   Clear
4:35 AM 75.2 °F - 62.6 °F 65% 29.87 in 10.0 mi South 17.3 mph 23.0 mph N/A   Clear
4:55 AM 75.2 °F - 62.6 °F 65% 29.87 in 10.0 mi SSW 18.4 mph 24.2 mph N/A   Clear
5:15 AM 75.2 °F - 62.6 °F 65% 29.87 in 10.0 mi SSW 17.3 mph - N/A   Clear
5:35 AM 73.4 °F - 62.6 °F 69% 29.87 in 10.0 mi SSW 17.3 mph - N/A   Clear
5:55 AM 73.4 °F - 60.8 °F 65% 29.87 in 10.0 mi SSW 18.4 mph 23.0 mph N/A   Clear
6:15 AM 73.4 °F - 60.8 °F 65% 29.87 in 10.0 mi SSW 16.1 mph 23.0 mph N/A   Clear
6:35 AM 73.4 °F - 60.8 °F 65% 29.87 in 10.0 mi South 13.8 mph 23.0 mph N/A   Clear
6:55 AM 73.4 °F - 60.8 °F 65% 29.87 in 10.0 mi South 16.1 mph 21.9 mph N/A   Clear
7:15 AM 73.4 °F - 60.8 °F 65% 29.88 in 10.0 mi South 17.3 mph - N/A   Clear
7:35 AM 73.4 °F - 60.8 °F 65% 29.88 in 10.0 mi South 16.1 mph 21.9 mph N/A   Clear
7:55 AM 73.4 °F - 60.8 °F 65% 29.88 in 10.0 mi South 17.3 mph 23.0 mph N/A   Clear
8:15 AM 73.4 °F - 60.8 °F 65% 29.89 in 10.0 mi South 17.3 mph - N/A   Clear
8:35 AM 75.2 °F - 62.6 °F 65% 29.89 in 10.0 mi South 17.3 mph 24.2 mph N/A   Clear
8:55 AM 75.2 °F - 62.6 °F 65% 29.89 in 10.0 mi SSW 21.9 mph 27.6 mph N/A   Clear
9:15 AM 78.8 °F - 62.6 °F 57% 29.90 in 10.0 mi SSW 23.0 mph 31.1 mph N/A   Clear
9:35 AM 78.8 °F - 62.6 °F 57% 29.90 in 10.0 mi SSW 19.6 mph 27.6 mph N/A   Clear
9:55 AM 78.8 °F - 62.6 °F 57% 29.90 in 10.0 mi SSW 23.0 mph 28.8 mph N/A   Clear
10:15 AM 80.6 °F 81.8 °F 62.6 °F 54% 29.90 in 10.0 mi SSW 21.9 mph 29.9 mph N/A   Clear
10:35 AM 82.4 °F 83.9 °F 64.4 °F 54% 29.90 in 10.0 mi SSW 18.4 mph - N/A   Clear
10:55 AM 84.2 °F 85.6 °F 64.4 °F 51% 29.90 in 10.0 mi SW 21.9 mph 31.1 mph N/A   Clear
11:15 AM 84.2 °F 85.6 °F 64.4 °F 51% 29.90 in 10.0 mi SSW 21.9 mph 26.5 mph N/A   Clear
11:35 AM 86.0 °F 87.3 °F 64.4 °F 48% 29.90 in 9.0 mi SSW 20.7 mph 31.1 mph N/A   Clear
11:55 AM 86.0 °F 87.3 °F 64.4 °F 48% 29.89 in 10.0 mi SSW 19.6 mph 25.3 mph N/A   Clear
12:15 PM 87.8 °F 89.4 °F 64.4 °F 46% 29.89 in 10.0 mi SSW 23.0 mph 26.5 mph N/A   Clear
12:35 PM 87.8 °F 89.4 °F 64.4 °F 46% 29.88 in 10.0 mi SSW 25.3 mph 28.8 mph N/A   Clear
12:55 PM 89.6 °F 91.1 °F 64.4 °F 43% 29.87 in 10.0 mi SSW 18.4 mph 32.2 mph N/A   Clear
1:15 PM 91.4 °F 93.2 °F 64.4 °F 41% 29.87 in 10.0 mi SW 18.4 mph 25.3 mph N/A   Clear
1:35 PM 89.6 °F 91.1 °F 64.4 °F 43% 29.87 in 9.0 mi SW 19.6 mph 23.0 mph N/A   Mostly Cloudy
1:55 PM 89.6 °F 91.1 °F 64.4 °F 43% 29.86 in 10.0 mi WSW 17.3 mph 23.0 mph N/A   Mostly Cloudy
2:15 PM 87.8 °F 88.5 °F 62.6 °F 43% 29.86 in 10.0 mi WSW 17.3 mph 26.5 mph N/A   Clear
2:35 PM 89.6 °F 91.1 °F 64.4 °F 43% 29.85 in 10.0 mi SW 19.6 mph 24.2 mph N/A   Clear
2:55 PM 89.6 °F 91.1 °F 64.4 °F 43% 29.84 in 10.0 mi SSW 19.6 mph - N/A   Clear
3:15 PM 89.6 °F 91.1 °F 64.4 °F 43% 29.83 in 10.0 mi SW 18.4 mph - N/A   Clear
3:35 PM 89.6 °F 91.1 °F 64.4 °F 43% 29.82 in 10.0 mi SW 19.6 mph 25.3 mph N/A   Clear
3:55 PM 87.8 °F 89.4 °F 64.4 °F 46% 29.82 in 10.0 mi SW 13.8 mph 21.9 mph N/A   Partly Cloudy
4:15 PM 87.8 °F 89.4 °F 64.4 °F 46% 29.81 in 10.0 mi WSW 16.1 mph 20.7 mph N/A Thunderstorm Clear
4:35 PM 86.0 °F 87.3 °F 64.4 °F 48% 29.83 in 10.0 mi SW 11.5 mph - N/A Thunderstorm Scattered Clouds
4:55 PM 82.4 °F 83.9 °F 64.4 °F 54% 29.82 in 10.0 mi WNW 9.2 mph - N/A Thunderstorm Scattered Clouds
5:15 PM 80.6 °F 82.3 °F 64.4 °F 58% 29.83 in 10.0 mi SW 12.7 mph - N/A Thunderstorm Scattered Clouds
5:35 PM 78.8 °F - 64.4 °F 61% 29.85 in 10.0 mi SW 17.3 mph 24.2 mph 0.03 in Thunderstorm Thunderstorm
5:55 PM 71.6 °F - 62.6 °F 73% 29.86 in 10.0 mi SSW 8.1 mph - 0.05 in Thunderstorm Mostly Cloudy
6:15 PM 71.6 °F - 64.4 °F 78% 29.88 in 10.0 mi SSW 12.7 mph - N/A   Partly Cloudy
6:35 PM 71.6 °F - 62.6 °F 73% 29.90 in 10.0 mi SW 13.8 mph 20.7 mph N/A Thunderstorm Mostly Cloudy
6:55 PM 71.6 °F - 62.6 °F 73% 29.90 in 10.0 mi WSW 12.7 mph - N/A Thunderstorm Mostly Cloudy
7:15 PM 69.8 °F - 64.4 °F 83% 29.90 in 10.0 mi West 10.4 mph - N/A   Mostly Cloudy
7:35 PM 69.8 °F - 64.4 °F 83% 29.92 in 10.0 mi West 8.1 mph - N/A   Mostly Cloudy
7:55 PM 69.8 °F - 64.4 °F 83% 29.94 in 10.0 mi WSW 4.6 mph - N/A   Overcast
8:15 PM 69.8 °F - 64.4 °F 83% 29.96 in 10.0 mi North 4.6 mph - N/A   Overcast
8:35 PM 71.6 °F - 64.4 °F 78% 29.98 in 10.0 mi North 4.6 mph - N/A   Overcast
8:55 PM 69.8 °F - 62.6 °F 78% 29.99 in 10.0 mi NE 5.8 mph - N/A   Overcast
9:15 PM 69.8 °F - 62.6 °F 78% 30.00 in 9.0 mi ENE 6.9 mph - N/A   Overcast
9:35 PM 69.8 °F - 62.6 °F 78% 30.01 in 7.0 mi North 3.5 mph - N/A   Overcast
9:55 PM 66.2 °F - 62.6 °F 88% 30.02 in 8.0 mi NE 9.2 mph - 0.10 in   Overcast
10:15 PM 66.2 °F - 60.8 °F 83% 30.03 in 10.0 mi NE 5.8 mph - 0.06 in   Overcast
10:35 PM 66.2 °F - 60.8 °F 83% 30.03 in 10.0 mi NNE 9.2 mph - 0.06 in   Overcast
10:55 PM 66.2 °F - 60.8 °F 83% 30.03 in 10.0 mi NNE 5.8 mph - 0.06 in   Overcast
11:15 PM 64.4 °F - 59.0 °F 83% 30.03 in 10.0 mi NE 8.1 mph - N/A   Overcast
11:35 PM 64.4 °F - 59.0 °F 83% 30.03 in 10.0 mi NNE 9.2 mph - N/A   Overcast
11:55 PM 64.4 °F - 59.0 °F 83% 30.03 in 10.0 mi NNE 8.1 mph - N/A   Overcast